Content
SEND FEEDBACK

Daily
Averages
Monthly
Summary
Mexico

CANCUN, QUINTANA ROO


Home > North America > Mexico > Quintana Roo
Elevation: 30 feet     Latitude: 21 09N     Longitude: 086 49W

WEATHER
 
SELECT A DAY
Number of Records: 163,931;   Date Range: 1/1/95 - 8/31/14
 
SHARE

PRINT THIS DATA

[ ← Previous Day ]
WEATHER ALMANAC - JANUARY 1, 2013
[ Next Day → ]
[ °C ]   °F
Weather ElementAverageHighLow
Temperature78.1 °F82.4 °F (12:44 pm)75.2 °F (1:40 am)
Dewpoint69.7 °F71.6 °F (2:45 pm)68 °F (1:40 am)
Humidity75.6 %89 % (11:46 pm)62 % (12:44 pm)
Barometer30.01 in30.06 in (7:46 am)29.94 in (3:44 pm)
Wind Speed8.5 mph17.3 mph (11:43 am)
Weather ElementAverage
Visibility7 mi
Wind DirectionESE (113.5 °)

Weather ElementTotal
Precipitation---
Cooling Degree Days13.8 (Base 65)
Growing Degree Days28.8 (Base 50)
Averaged from 23 records on January 1, 2013
WEATHER CONDITIONS BREAKOUT
WIND DIRECTION BREAKOUT
WEATHER BY HOUR - JANUARY 1, 2013
[ °C ]   °F
Local TimeTemperatureDewpointHumidityBarometerVisibilityWind DirectionWind SpeedGust SpeedPrecipitationEventsConditions
1:40 AM75.2 °F68.0 °F78 %30.05 in7.0 miEast (100°)5.8 mphScattered Clouds
2:40 AM75.2 °F68.0 °F78 %30.04 in7.0 miEast (100°)4.6 mphScattered Clouds
3:51 AM75.2 °F68.0 °F78 %30.03 in7.0 miEast (100°)4.6 mphScattered Clouds
4:41 AM75.2 °F68.0 °F78 %30.03 in7.0 miEast (100°)4.6 mphScattered Clouds
5:43 AM75.2 °F68.0 °F78 %30.02 in7.0 miESE (110°)5.8 mphScattered Clouds
6:47 AM75.2 °F68.0 °F78 %30.05 in7.0 miEast (100°)5.8 mphScattered Clouds
7:46 AM77.0 °F68.0 °F74 %30.06 in7.0 miEast (100°)8.1 mphScattered Clouds
8:44 AM80.6 °F68.0 °F65 %30.06 in7.0 miESE (120°)11.5 mphMostly Cloudy
9:45 AM80.6 °F68.0 °F65 %30.06 in7.0 miSE (130°)12.7 mphScattered Clouds
10:43 AM80.6 °F69.8 °F70 %30.05 in7.0 miSE (130°)12.7 mphMostly Cloudy
11:43 AM80.6 °F68.0 °F65 %30.03 in7.0 miESE (120°)17.3 mphMostly Cloudy
12:44 PM82.4 °F68.0 °F62 %29.98 in7.0 miSE (130°)13.8 mphMostly Cloudy
1:40 PM82.4 °F69.8 °F66 %29.96 in7.0 miSSE (150°)12.7 mphMostly Cloudy
2:45 PM80.6 °F71.6 °F74 %29.95 in7.0 miESE (120°)10.4 mphMostly Cloudy
3:44 PM80.6 °F71.6 °F74 %29.94 in7.0 miSE (140°)11.5 mphMostly Cloudy
4:43 PM78.8 °F71.6 °F78 %29.95 in7.0 miESE (120°)9.2 mphMostly Cloudy
5:46 PM78.8 °F71.6 °F78 %29.95 in7.0 miESE (120°)8.1 mphMostly Cloudy
6:46 PM77.0 °F71.6 °F83 %29.97 in7.0 miEast (90°)5.8 mphScattered Clouds
7:51 PM78.8 °F71.6 °F78 %29.99 in7.0 miESE (110°)6.9 mphMostly Cloudy
8:45 PM77.0 °F71.6 °F83 %30.00 in7.0 miESE (110°)5.8 mphMostly Cloudy
9:48 PM77.0 °F71.6 °F83 %30.00 in7.0 miESE (110°)5.8 mphMostly Cloudy
10:47 PM77.0 °F71.6 °F83 %29.99 in7.0 miEast (100°)5.8 mphMostly Cloudy
11:46 PM75.2 °F71.6 °F89 %29.97 in7.0 miEast (100°)5.8 mphScattered Clouds
Hourly data recorded from MMUN, located miles away from Cancun, Quintana Roo







STORIES FROM OUR PARTNERS